Home   Weather   Burbank   Past weeks

Flag for USA Past Weather in Burbank, California, USA — Yesterday and Last 2 Weeks

Now
81 °F

Sunny.


Feels Like: 82 °F
Forecast: 67 / 88 °F
Wind: 12 mph from Southeast

Location: Bob Hope Airport

Current Time: Jul 28, 2017 at 11:51:34 am

Latest Report: Jul 28, 2017 at 10:53 am


Visibility: 10 mi

Pressure: 29.89 "Hg

Humidity: 49%

Dew Point: 60 °F

Location of BurbankLocation

Past Weather in Burbank — Graph

°F

Burbank Temperature Yesterday

Maximum temperature yesterday: 91 °F (at 1:53 pm)
Minimum temperature yesterday: 67 °F (at 12:53 am)
Average temperature yesterday: 77 °F

High & Low Weather Summary for the Past Weeks

 TemperatureHumidityPressure
High91 °F (Jul 27, 1:53 pm)87% (Jul 26, 4:53 am)29.98 "Hg (Jul 26, 4:53 am)
Low65 °F (Jul 14, 3:53 am)24% (Jul 13, 2:53 pm)29.77 "Hg (Jul 23, 4:53 pm)
Average76 °F60%29.89 "Hg
* Reported Jul 13 11:53 am — Jul 28 9:53 am, Burbank. Weather by CustomWeather, © 2017

Note: Actual official high and low records may vary slightly from our data, if they occured in-between our weather recording intervals... More about our weather records

Advertising

Burbank Weather History for the Previous 24 Hours

Scroll right to see more
 ConditionsComfort  
Time TempWeatherWind HumidityBarometerVisibility
9:53 am
Fri, Jul 28
76 °FSunny.7 mph58%29.90 "Hg9 mi
8:53 am72 °FSunny.6 mph66%29.90 "Hg9 mi
7:53 am69 °FSunny.No wind70%29.88 "Hg9 mi
6:53 am67 °FSunny.3 mph73%29.88 "Hg10 mi
5:53 am66 °FClear.No wind81%29.88 "Hg10 mi
4:53 am66 °FClear.5 mph81%29.88 "Hg10 mi
3:53 am67 °FClear.5 mph79%29.86 "Hg10 mi
2:53 am67 °FClear.5 mph79%29.86 "Hg10 mi
1:53 am68 °FClear.5 mph73%29.87 "Hg10 mi
12:53 am68 °FClear.3 mph73%29.87 "Hg10 mi
11:53 pm
Thu, Jul 27
68 °FClear.8 mph76%29.88 "Hg10 mi
10:53 pm70 °FClear.10 mph73%29.88 "Hg10 mi
9:53 pm71 °FClear.9 mph71%29.86 "Hg10 mi
8:53 pm75 °FClear.9 mph62%29.85 "Hg10 mi
7:53 pm78 °FSunny.8 mph54%29.83 "Hg10 mi
6:53 pm84 °FSunny.9 mph43%29.82 "Hg10 mi
5:53 pm85 °FSunny.10 mph40%29.82 "Hg10 mi
4:53 pm88 °FSunny.10 mph36%29.82 "Hg10 mi
3:53 pm91 °FSunny.12 mph36%29.83 "Hg10 mi
2:53 pm91 °FSunny.10 mph37%29.84 "Hg10 mi
1:53 pm91 °FSunny.6 mph38%29.86 "Hg10 mi
12:53 pm89 °FSunny.8 mph39%29.88 "Hg10 mi
11:53 am85 °FSunny.3 mph45%29.90 "Hg10 mi
Weather by CustomWeather, © 2017

See weather overviewHow to use our weather pages